This demonstration page uses our WeatherBlox Daily Observations layout. Learn more.

Left ArrowRight Arrow

Hourly Observations for July 19, 2015

Temp ( °F °C ) Dew Point ( °F °C ) Humidity (%) Winds ( mph kmh ) Pressure ( in mb ) Visibility ( mi km ) Precip ( " mm )
12:52 am 00:52 Clear 77 25 72 22.2 85 85 S 3 6 29.91 1013 10 16 0.00 0.00
1:52 am 01:52 Clear 76 24.4 72 22.2 88 88 SSE 6 9 29.91 1013 10 16 0.00 0.00
2:52 am 02:52 Clear 75 23.9 72 22.2 90 90 S 6 9 29.91 1013 10 16 0.00 0.00
3:52 am 03:52 Clear 75 23.9 72 22.2 90 90 S 7 11 29.92 1013 10 16 0.00 0.00
4:52 am 04:52 Clear 75 23.9 71 21.7 88 88 S 7 11 29.92 1013 10 16 0.00 0.00
5:52 am 05:52 Clear 75 23.9 71 21.7 88 88 S 9 15 29.93 1014 10 16 0.00 0.00
6:52 am 06:52 Sunny 75 23.9 71 21.7 88 88 S 9 15 29.95 1014 10 16 0.00 0.00
7:52 am 07:52 Sunny 77 25 72 22.2 85 85 SSW 9 15 29.95 1014 10 16 0.00 0.00
8:52 am 08:52 Sunny 81 27.2 72 22.2 74 74 SSW 10 17 29.97 1015 10 16 0.00 0.00
9:52 am 09:52 Sunny 85 29.4 72 22.2 65 65 WSW 10 17 29.98 1015 10 16 0.00 0.00
10:52 am 10:52 Sunny 88 31.1 72 22.2 59 59 WSW 15 24 29.97 1015 10 16 0.00 0.00
11:52 am 11:52 Partly Cloudy 87 30.6 72 22.2 61 61 W 7 11 29.97 1015 10 16 0.00 0.00
12:52 pm 12:52 Sunny 89 31.7 74 23.3 61 61 WSW 9 15 29.96 1015 10 16 0.00 0.00
1:52 pm 13:52 Sunny 91 32.8 74 23.3 57 57 SSW 13 20 29.93 1014 10 16 0.00 0.00
2:52 pm 14:52 Sunny 91 32.8 75 23.9 59 59 S 13 20 29.91 1013 10 16 0.00 0.00
3:52 pm 15:52 Sunny 91 32.8 75 23.9 59 59 SSW 13 20 29.90 1013 10 16 0.00 0.00
4:52 pm 16:52 Sunny 90 32.2 75 23.9 62 62 SSW 10 17 29.90 1012 10 16 0.00 0.00
5:52 pm 17:52 Sunny 90 32.2 76 24.4 63 63 SW 8 13 29.89 1012 10 16 0.00 0.00
6:52 pm 18:52 Sunny 89 31.7 77 25 68 68 SW 8 13 29.88 1012 10 16 0.00 0.00
7:52 pm 19:52 Sunny 88 31.1 77 25 70 70 WSW 6 9 29.87 1012 10 16 0.00 0.00
8:52 pm 20:52 Clear 85 29.4 77 25 77 77 SW 5 7 29.88 1012 10 16 0.00 0.00
9:52 pm 21:52 Clear 83 28.3 76 24.4 79 79 SSW 5 7 29.88 1012 10 16 0.00 0.00
10:52 pm 22:52 Clear 81 27.2 77 25 88 88 SSW 6 9 29.90 1012 10 16 0.00 0.00
11:52 pm 23:52 Clear 81 27.2 76 24.4 85 85 SSW 6 9 29.90 1012 10 16 0.00 0.00

Powered by AerisWeather